Location: Rancho Del Sol Observatory
(38.7214°N, 120.6350°W)
Time: 07:17:12
(UTC-08:00)

Courier 1B - Pass Details

Date: 25 January 2020
Orbit: 962 x 1209 km, 28.3° (Epoch: 17 February)

Event Time Altitude Azimuth Distance (km) Brightness Sun altitude
Exits shadow 06:12:51 - 253° (WSW) 3,137 9.6 -12.1°
Reaches altitude 10° 06:13:07 10° 252° (WSW) 3,057 9.6 -12.1°
Maximum altitude 06:19:43 33° 192° (SSW) 1,892 9.1 -10.8°
Drops below altitude 10° 06:26:30 10° 132° (SE) 3,136 11.3 -9.6°
Sets 06:29:41 0° 123° (ESE) 4,101 12.5 -9.0°
